Flag for U.S.A. Weather past 2 weeks in Jacksonville, Florida, U.S.A.

Now
68 °F

Sunny.


Feels Like: 68 °F
Forecast: 52 / 77 °F
Wind: 7 mph from North

Location: Jacksonville Naval Air Station

Current Time: Oct 25, 2014 at 10:49:38 AM

Latest Report: Oct 25, 2014 at 9:53 AM


Visibility: 10 mi

Pressure: 30.02 "Hg

Humidity: 57%

Dew point: 52 °F

Location of JacksonvilleLocation

Historic Weather in Jacksonville — Graph

°F

Jacksonville temperature yesterday

Maximum temperature yesterday: 77 °F (at 3:53 PM)
Minimum temperature yesterday: 58 °F (at 4:53 AM)
Average temperature yesterday: 68 °F

Past Weeks' High & Low Weather Summary

 TemperatureHumidityPressure
High91 °F (Oct 11, 4:53 PM)88% (Oct 12, 6:53 AM)30.12 "Hg (Oct 12, 6:53 AM)
Low58 °F (Oct 24, 4:53 AM)20% (Oct 11, 4:53 PM)29.86 "Hg (Oct 16, 2:53 PM)
Average75 °F62%29.99 "Hg
* Reported Oct 10 9:53 AM — Oct 25 9:53 AM, Jacksonville, Weather by CustomWeather, © 2014

Note: Actual official high and low records may vary slightly from our data, if they occured in-between our weather recording intervals... More about our weather records

Advertising

Jacksonville weather history for previous 24 hours

 ConditionsComfort  
Time TempWeatherWind HumidityBarometerVisibility
9:53 AM
Oct 25
68 °FSunny.7 mph57%30.02 "Hg10 mi
8:53 AM62 °FSunny.6 mph70%30.00 "Hg10 mi
7:53 AM59 °FClear.6 mph75%29.99 "Hg10 mi
6:53 AM60 °FClear.5 mph75%29.98 "Hg10 mi
5:53 AM61 °FClear.3 mph72%29.98 "Hg10 mi
4:53 AM60 °FClear.No wind78%29.97 "Hg10 mi
3:53 AM59 °FClear.3 mph81%29.97 "Hg10 mi
2:53 AM60 °FClear.3 mph80%29.97 "Hg10 mi
1:53 AM62 °FClear.No wind78%29.99 "Hg10 mi
12:53 AM62 °FClear.5 mph78%29.99 "Hg10 mi
11:53 PM
Oct 24
65 °FClear.No wind70%29.99 "Hg10 mi
10:53 PM69 °FClear.No wind61%30.00 "Hg10 mi
9:53 PM68 °FClear.5 mph63%29.99 "Hg10 mi
8:53 PM71 °FClear.9 mph59%29.98 "Hg10 mi
7:53 PM71 °FClear.10 mph57%29.97 "Hg10 mi
6:53 PM73 °FPassing clouds.9 mph50%29.95 "Hg10 mi
5:53 PM75 °FPassing clouds.8 mph45%29.95 "Hg10 mi
4:53 PM76 °FPassing clouds.10 mph42%29.95 "Hg10 mi
3:53 PM77 °FScattered clouds.7 mph40%29.96 "Hg10 mi
2:53 PM76 °FScattered clouds.No wind42%29.97 "Hg10 mi
1:53 PM75 °FPassing clouds.7 mph43%30.00 "Hg10 mi
12:53 PM74 °FScattered clouds.10 mph43%30.03 "Hg10 mi
11:53 AM72 °FPartly sunny.10 mph44%30.05 "Hg10 mi
10:53 AM71 °FPartly sunny.12 mph44%30.05 "Hg10 mi
Weather by CustomWeather, © 2014

See weather overviewHow to use our weather pages